Wind_Speed
55 57 56 52 49 48 48 48 47 46 45 47 47 46 44 45 44 42 41 40 38 36 34 34 34 33 33 32 32 32 33 33 33 33 33 33 33 34 34 34 34 34 34 35
56 57 51 49 50 50 50 49 48 47 47 48 49 48 46 46 45 43 42 41 39 38 37 36 35 35 35 34 34 34 34 34 34 34 34 34 35 34 34 34 35 36 36 36
55 50 49 51 52 52 51 50 47 47 47 49 49 49 47 45 45 44 43 42 40 39 38 38 37 37 36 36 36 35 35 35 35 35 35 35 35 35 34 35 36 36 36 36
54 52 52 52 52 51 50 47 46 47 48 49 50 51 47 45 45 44 43 42 40 40 39 39 38 37 37 36 36 36 36 36 36 35 35 35 35 35 36 36 36 37 37 37
55 53 53 54 51 49 47 45 46 46 48 49 49 52 48 45 44 42 41 41 41 40 40 39 38 37 37 37 37 36 36 36 36 36 36 36 36 36 36 37 37 37 37 38
54 53 52 50 48 48 47 46 46 47 48 52 49 51 50 43 41 41 40 41 40 40 40 40 39 38 38 37 36 36 36 36 36 36 36 36 36 36 36 37 37 37 37 38
55 55 53 51 51 51 51 50 49 49 51 52 47 50 50 40 38 38 38 39 39 39 39 38 38 37 36 36 36 36 36 36 36 36 36 36 36 36 37 37 37 37 37 37
54 55 54 53 52 52 52 52 52 51 51 49 47 49 46 40 37 37 37 37 38 38 37 37 36 36 36 36 36 36 36 35 35 35 35 36 36 36 37 37 37 36 37 38
53 53 52 51 49 50 51 52 50 50 51 50 50 47 44 40 37 36 36 35 36 36 36 36 36 35 35 36 35 35 35 34 34 35 35 35 35 36 36 37 37 37 37 38
52 52 52 50 50 51 50 49 51 52 52 52 51 48 43 38 36 34 33 33 34 35 35 35 35 35 35 34 34 34 34 34 34 35 35 35 35 35 36 37 36 36 37 37
52 52 52 53 54 51 51 52 53 52 52 51 50 47 39 36 34 33 32 31 32 32 33 33 33 33 33 33 33 34 34 34 34 34 34 34 34 34 35 35 35 36 36 36
53 51 52 52 51 49 50 51 51 52 51 49 48 45 39 36 34 33 32 31 30 31 31 31 31 32 32 32 32 32 32 32 32 33 32 32 33 34 34 35 35 35 35 36
52 53 53 52 53 53 52 51 51 50 50 50 47 43 39 37 35 34 33 31 30 29 30 30 30 31 31 31 31 31 31 31 31 32 32 32 33 33 33 34 34 34 35 35
51 52 53 53 52 52 51 52 52 53 52 50 45 40 37 36 35 34 33 31 29 29 29 29 29 30 30 29 30 30 30 31 31 31 31 32 32 32 32 32 33 33 34 35
50 51 50 50 49 51 50 49 50 50 48 47 42 40 35 34 35 34 33 31 30 29 28 28 28 28 28 28 29 29 30 30 30 30 30 31 31 31 31 32 32 33 34 35
48 48 49 50 49 50 52 49 46 46 45 44 42 39 34 34 36 35 34 32 30 28 28 28 28 27 28 28 29 29 30 30 30 30 30 30 31 31 31 31 32 33 34 35
46 46 47 48 49 52 53 49 47 45 44 43 42 35 34 36 36 35 34 31 29 28 28 28 27 27 28 28 28 29 29 29 29 29 30 30 30 30 31 32 33 33 34 36
45 46 45 48 50 53 49 46 46 44 43 41 39 36 36 35 34 35 34 32 30 29 28 28 28 28 28 29 29 29 29 29 28 29 29 29 30 31 32 32 32 33 35 36
45 46 46 46 48 49 47 44 44 43 43 40 38 36 36 35 37 36 33 32 30 29 29 28 28 28 29 29 29 29 29 28 28 28 29 30 30 31 32 32 33 34 35 36
43 46 47 46 46 46 41 39 40 42 43 38 38 36 37 38 38 32 31 31 31 30 29 29 28 28 28 28 29 29 29 29 28 29 29 30 30 31 32 33 34 35 35 36
41 44 47 45 45 42 38 39 41 42 34 32 35 35 36 37 34 30 32 32 31 30 29 29 29 28 28 28 29 29 29 28 28 29 29 30 30 31 32 33 34 34 35 36
38 40 42 43 43 41 37 38 39 34 31 32 33 34 35 34 33 33 33 33 32 31 30 29 29 28 29 28 28 28 28 28 29 29 29 30 31 32 33 33 34 34 36 37
38 38 40 41 41 38 35 34 33 33 33 33 33 33 33 33 33 33 33 32 31 30 29 29 29 29 29 28 27 27 28 28 28 29 30 31 32 33 33 34 34 36 37 38
38 39 39 39 39 36 32 31 32 33 33 33 32 32 32 31 30 30 30 30 30 29 28 28 29 29 28 27 27 27 27 28 29 30 31 32 32 33 33 34 35 37 38 39
37 38 38 39 37 36 33 30 30 32 32 32 32 31 30 30 28 28 28 29 29 28 27 27 27 27 27 27 27 27 28 28 29 30 31 32 32 33 34 35 36 37 39 40
36 35 36 35 33 34 32 31 32 32 31 30 30 30 30 29 28 27 27 27 28 28 27 27 27 27 27 27 27 27 27 28 29 30 31 32 33 34 34 36 37 38 40 41
Wind_Direction
226 228 229 232 234 234 234 235 234 235 236 238 239 239 238 241 242 242 244 246 249 251 252 254 256 258 260 263 265 267 270 272 274 276 277 279 279 280 282 284 285 286 286 287
227 229 230 231 232 232 232 234 235 235 237 239 239 239 239 240 242 242 244 246 248 250 252 254 256 258 261 263 265 267 269 271 273 275 276 278 279 281 282 283 283 284 285 286
230 230 229 230 230 231 232 233 235 237 238 240 241 239 238 240 242 243 244 246 248 250 252 254 257 259 261 263 265 266 268 270 272 274 276 277 279 280 281 281 282 284 285 286
228 226 226 228 229 230 232 233 235 236 238 240 242 242 237 239 241 243 245 247 249 251 253 255 257 259 260 262 264 265 267 269 271 273 275 276 277 278 279 280 282 283 284 285
227 226 227 228 228 230 232 233 235 237 239 241 242 245 238 238 240 243 245 248 249 251 253 255 257 259 260 261 263 265 266 268 269 271 273 274 275 276 278 279 280 281 282 283
225 226 227 227 227 228 229 230 232 235 237 240 240 245 243 238 240 243 245 247 249 251 254 256 257 259 260 261 262 264 266 267 269 270 272 273 274 275 277 278 279 280 281 282
222 223 224 224 224 224 225 227 229 232 235 239 240 243 245 240 240 242 245 247 249 251 253 256 257 258 260 261 262 263 265 266 268 269 270 271 272 274 275 276 278 279 280 280
223 223 222 223 225 226 227 228 230 234 238 241 241 243 244 243 241 243 245 247 249 251 253 255 256 257 259 260 262 263 265 266 267 268 269 270 272 273 274 276 277 278 278 279
225 225 224 225 225 226 227 229 232 236 239 241 242 243 243 244 244 244 245 247 249 251 253 254 255 257 258 260 261 263 264 265 266 268 269 270 271 272 273 274 276 277 278 279
223 225 223 223 223 224 227 230 231 234 237 240 242 242 242 243 246 246 247 247 249 250 252 254 256 257 259 260 261 262 263 264 266 267 268 269 270 271 272 274 275 277 277 279
221 224 223 223 224 224 225 226 229 233 238 240 242 242 243 246 247 248 248 248 248 249 250 252 254 256 257 259 260 262 263 265 266 267 267 268 269 270 272 273 275 276 277 279
219 223 225 225 225 227 229 230 230 233 237 240 243 243 243 246 247 248 248 248 248 249 250 251 253 255 257 259 261 262 263 264 265 266 267 268 269 270 272 273 274 275 277 279
218 221 223 223 223 224 226 226 229 232 236 239 241 241 242 246 247 247 248 248 248 248 249 250 252 255 257 259 260 261 262 264 265 266 267 268 269 270 271 272 273 275 277 279
217 221 222 224 225 226 227 227 227 229 232 236 238 239 240 243 245 246 247 248 247 246 247 249 252 255 257 258 260 261 262 264 265 266 267 268 269 270 271 272 274 276 277 279
215 219 222 223 225 227 228 229 229 231 233 236 236 237 237 240 242 244 245 246 246 246 247 249 251 255 257 258 259 260 262 264 265 266 267 267 268 269 271 273 275 277 278 279
217 219 221 222 224 226 226 225 227 228 230 232 233 233 233 237 240 242 243 243 244 246 248 250 251 253 256 258 259 260 262 263 264 265 266 267 268 270 271 273 276 277 279 281
217 218 220 221 224 227 225 223 226 227 228 230 232 232 232 235 239 241 242 242 243 245 247 250 251 253 255 257 259 261 262 263 264 265 266 267 268 269 271 274 276 278 280 283
216 217 219 220 223 228 227 226 229 231 230 231 232 229 231 234 236 238 239 240 242 245 247 249 251 253 255 257 259 261 262 263 264 265 266 267 269 270 273 275 277 279 281 284
213 216 220 221 225 227 226 225 227 228 229 229 231 228 230 232 235 235 237 240 243 246 247 249 251 253 254 256 258 260 261 262 263 265 266 268 270 272 275 276 278 281 283 285
212 216 219 221 225 226 223 224 226 229 228 225 229 229 229 231 234 234 238 241 244 246 246 248 251 252 253 255 258 259 261 262 264 266 267 269 271 273 276 278 280 282 284 285
212 215 219 221 225 223 221 222 224 227 224 224 228 229 230 232 233 232 235 239 242 244 245 247 249 250 252 255 257 259 261 262 264 266 268 270 272 275 278 280 282 283 284 287
216 217 218 221 223 219 219 221 223 225 224 224 225 227 231 231 230 231 234 237 239 242 243 245 247 249 251 254 257 259 260 261 263 266 269 271 274 277 279 281 282 284 286 288
213 216 219 222 220 219 220 221 221 222 223 224 225 228 230 230 231 233 234 236 238 241 243 244 246 248 251 253 256 258 260 262 265 267 270 273 275 278 280 282 284 286 288 290
211 213 215 216 216 218 219 219 218 219 221 224 226 226 227 228 229 232 233 235 238 241 243 244 245 248 251 253 256 258 260 263 266 269 272 275 277 279 281 283 285 288 290 292
209 211 213 214 214 216 215 214 213 215 217 220 225 226 227 228 229 230 232 234 237 239 240 242 245 247 250 253 256 259 262 265 269 271 274 276 278 280 283 285 287 290 292 293
203 207 210 210 213 214 211 211 213 214 215 219 223 225 226 227 228 229 231 234 236 237 239 242 245 247 250 254 257 261 264 267 270 273 276 278 280 282 285 287 290 292 293 295
Height
5691 5696 5705 5716 5724 5730 5734 5739 5744 5750 5753 5756 5759 5764 5770 5773 5777 5781 5785 5788 5790 5794 5796 5798 5800 5801 5803 5804 5805 5806 5806 5806 5806 5806 5806 5805 5804 5803 5802 5801 5799 5798 5796 5795
5678 5686 5701 5708 5712 5717 5722 5727 5734 5740 5743 5745 5749 5754 5760 5763 5768 5773 5776 5780 5783 5786 5788 5790 5792 5793 5795 5796 5797 5798 5798 5798 5798 5798 5798 5797 5796 5796 5794 5793 5791 5790 5788 5787
5669 5684 5692 5694 5699 5705 5711 5719 5726 5731 5733 5734 5738 5743 5750 5755 5759 5763 5768 5771 5774 5777 5780 5782 5784 5786 5787 5788 5789 5789 5790 5790 5790 5790 5789 5789 5788 5787 5786 5785 5783 5782 5780 5779
5657 5669 5675 5681 5688 5695 5702 5712 5716 5719 5721 5724 5728 5732 5742 5746 5750 5755 5759 5763 5766 5769 5771 5773 5775 5777 5779 5780 5780 5781 5781 5781 5781 5781 5781 5781 5780 5779 5778 5776 5775 5774 5772 5771
5647 5658 5663 5669 5681 5688 5696 5702 5705 5708 5710 5713 5717 5719 5731 5737 5741 5747 5751 5754 5757 5760 5762 5764 5766 5768 5770 5770 5771 5772 5772 5773 5772 5772 5772 5772 5771 5770 5769 5768 5767 5765 5764 5762
5637 5646 5653 5663 5672 5678 5684 5689 5692 5695 5698 5700 5709 5710 5717 5729 5734 5739 5742 5745 5747 5750 5753 5755 5757 5759 5760 5761 5762 5763 5764 5764 5764 5764 5763 5763 5762 5761 5760 5759 5758 5757 5756 5754
5624 5632 5641 5650 5657 5664 5670 5676 5680 5682 5684 5691 5701 5700 5708 5721 5726 5729 5733 5735 5738 5740 5743 5745 5747 5749 5750 5752 5753 5754 5754 5755 5755 5754 5754 5754 5753 5753 5752 5751 5750 5748 5747 5745
5613 5620 5630 5638 5646 5654 5660 5666 5671 5675 5678 5685 5689 5691 5702 5711 5716 5719 5723 5726 5728 5731 5734 5736 5738 5739 5741 5742 5743 5744 5745 5745 5746 5746 5745 5745 5745 5744 5743 5742 5741 5740 5738 5737
5604 5614 5624 5631 5639 5645 5650 5655 5663 5667 5670 5674 5677 5684 5693 5700 5706 5711 5714 5717 5720 5722 5724 5726 5728 5730 5731 5733 5734 5735 5736 5736 5736 5736 5736 5736 5736 5735 5734 5733 5732 5731 5730 5728
5594 5603 5612 5620 5625 5631 5640 5647 5651 5654 5658 5662 5668 5675 5684 5692 5697 5702 5705 5708 5710 5713 5715 5717 5719 5720 5722 5723 5724 5725 5726 5727 5727 5727 5727 5727 5727 5726 5725 5724 5723 5722 5721 5719
5583 5591 5600 5606 5611 5621 5629 5634 5638 5645 5649 5654 5659 5669 5678 5684 5688 5692 5696 5698 5701 5703 5706 5708 5709 5711 5712 5714 5715 5716 5717 5718 5718 5718 5718 5718 5718 5717 5716 5716 5715 5713 5712 5711
5572 5580 5587 5596 5606 5613 5619 5624 5630 5636 5640 5646 5651 5662 5669 5674 5678 5682 5686 5689 5692 5694 5697 5699 5700 5702 5703 5705 5706 5707 5708 5708 5708 5708 5709 5709 5709 5708 5708 5707 5706 5704 5703 5702
5561 5568 5575 5583 5592 5598 5604 5612 5620 5627 5631 5635 5641 5653 5660 5665 5669 5673 5677 5680 5683 5686 5688 5690 5692 5693 5694 5696 5697 5698 5698 5699 5699 5700 5700 5700 5700 5699 5699 5698 5697 5696 5694 5693
5550 5556 5564 5572 5582 5590 5595 5602 5609 5614 5618 5625 5633 5644 5651 5655 5660 5664 5667 5671 5674 5677 5679 5681 5683 5684 5686 5687 5688 5689 5690 5690 5691 5691 5691 5691 5691 5690 5690 5689 5688 5687 5686 5684
5537 5546 5555 5564 5572 5579 5586 5593 5599 5604 5612 5619 5628 5634 5642 5647 5651 5655 5658 5661 5665 5668 5671 5673 5675 5676 5677 5678 5679 5680 5681 5681 5682 5682 5682 5682 5682 5681 5681 5680 5679 5678 5677 5675
5528 5537 5546 5553 5561 5567 5573 5581 5588 5595 5603 5610 5618 5624 5633 5637 5640 5644 5648 5652 5656 5659 5662 5664 5666 5668 5669 5670 5671 5672 5672 5673 5673 5673 5674 5673 5673 5673 5672 5671 5670 5669 5668 5666
5519 5529 5536 5544 5550 5553 5560 5573 5580 5587 5594 5602 5608 5619 5624 5627 5630 5635 5639 5643 5647 5651 5653 5655 5657 5659 5660 5661 5662 5663 5663 5664 5664 5665 5665 5665 5665 5664 5663 5663 5661 5660 5658 5656
5512 5520 5527 5534 5540 5543 5559 5569 5574 5580 5587 5594 5601 5609 5613 5618 5622 5625 5629 5634 5638 5641 5644 5646 5648 5650 5652 5653 5653 5654 5655 5655 5656 5656 5656 5656 5656 5655 5655 5654 5652 5651 5649 5647
5505 5511 5518 5524 5530 5537 5548 5558 5565 5571 5578 5587 5593 5599 5604 5608 5610 5614 5620 5625 5629 5632 5635 5637 5639 5641 5643 5644 5645 5646 5646 5647 5647 5648 5647 5647 5647 5647 5646 5644 5643 5641 5639 5637
5497 5503 5511 5516 5522 5529 5545 5553 5558 5563 5568 5579 5584 5589 5594 5596 5600 5609 5613 5616 5620 5623 5626 5628 5630 5632 5634 5635 5636 5637 5638 5639 5639 5639 5639 5639 5638 5638 5637 5635 5634 5632 5629 5627
5488 5494 5502 5509 5515 5524 5537 5543 5547 5553 5565 5573 5576 5581 5584 5588 5595 5603 5604 5607 5610 5614 5617 5619 5621 5623 5625 5627 5628 5629 5629 5630 5630 5630 5630 5630 5629 5629 5627 5626 5624 5622 5620 5617
5481 5487 5494 5501 5508 5521 5529 5534 5540 5549 5558 5562 5566 5571 5576 5581 5586 5590 5594 5597 5601 5605 5608 5610 5613 5615 5617 5618 5619 5620 5621 5621 5622 5622 5622 5621 5621 5619 5618 5616 5615 5612 5610 5607
5474 5482 5489 5497 5507 5514 5520 5527 5534 5540 5546 5552 5557 5562 5567 5572 5577 5581 5585 5589 5593 5596 5599 5602 5604 5606 5608 5610 5611 5612 5612 5613 5613 5613 5613 5612 5611 5610 5609 5607 5605 5602 5600 5597
5467 5474 5481 5489 5498 5506 5512 5518 5525 5531 5538 5543 5549 5554 5559 5564 5568 5573 5577 5581 5584 5588 5590 5593 5596 5598 5600 5601 5602 5603 5604 5604 5605 5604 5604 5603 5602 5601 5599 5597 5595 5592 5589 5586
5461 5468 5474 5482 5491 5498 5505 5511 5518 5524 5530 5536 5542 5547 5551 5556 5560 5565 5569 5573 5576 5579 5582 5585 5587 5590 5591 5593 5594 5595 5596 5596 5596 5595 5595 5594 5593 5591 5589 5587 5584 5581 5578 5575
5455 5463 5470 5478 5487 5493 5500 5506 5511 5517 5523 5529 5534 5539 5544 5548 5553 5557 5561 5564 5568 5571 5574 5577 5579 5581 5583 5584 5586 5586 5587 5587 5587 5586 5586 5584 5583 5581 5579 5577 5574 5570 5567 5563